{"data":{"norad_id":63369,"epoch":"2026-09-20T12:37:39.532800Z","epoch_age_seconds":156564,"freshness":"FRESH","line1":"1 63369U 25063G   26263.52615200  .00006433  00000+0  20136-3 0  9993","line2":"2 63369  53.1557 221.5177 0001328  67.3540 292.7603 15.34401509 84620","mean_motion":15.34401509,"eccentricity":0.0001328,"inclination_deg":53.1557,"raan_deg":221.5177,"arg_perigee_deg":67.354,"mean_anomaly_deg":292.7603,"bstar":0.00020136,"rev_number":8462,"period_min":93.847665787195,"perigee_km":461.79029215649,"apogee_km":463.60721813306,"semimajor_km":6840.8357551448,"source":"CELESTRAK","updated_at":"2026-09-21T09:00:34.973166Z"}}